User: anonymous
Location: Caltech
(34.1382°N, 118.1253°W)
Time: 23:39:26
(UTC-07:00)
Language:

OAO 2 Rocket - Orbit

View from above orbital plane
View from above orbital plane
View from above satellite
View from above satellite

Ground track
Ground track

The orbit data is extracted from the following two-line orbital elements,

1 03598U 68110B   14209.13177380  .00000331  00000-0  81553-4 0  6706
2 03598 034.9934 172.9531 0049760 311.5879 152.4044 14.53642407412820
Epoch (UTC): 28 July 2014 03:09:45
Eccentricity: 0.0049760
inclination: 34.9934°
perigee height: 678 km
apogee height: 749 km
right ascension of ascending node: 172.9531°
argument of perigee: 311.5879°
revolutions per day: 14.53642407
mean anomaly at epoch: 152.4044°
orbit number at epoch: 41282

The dashed part of the orbit path shows where the satellite is in the earth's shadow,  

DLR